Weather in Zion National Park

United States     37°11′22″N   113°00′22″W
temp.,
°C
wind,
m/s
gust,
m/s
humid.,
%
clouds,
%
prec.,
mm/h
press.,
hPa
HPBL,
m
16 may, sun
sun1600:00+14ene01291 0.0 100611
03:00+13e112513 0.0 100611
06:00+12ene43243 0.0 100723
09:00+16sse88220 0.0 10081663
12:00+19s67150 0.0 10082684
15:00+21sw77121 0.0 10063529
18:00+20wsw88135 0.0 10043719
21:00+15w6102196 0.0 1007253
17 may, mon
mon1700:00+12wnw123521 0.0 100911
03:00+10n113965 0.0 100811
06:00+10nnw224211 0.0 100911
09:00+15w333259 0.0 1010752
12:00+19wnw452547 0.0 10092358
15:00+18wsw663086 0.1 10091836
18:00+15w564069 0.1 1009634
21:00+13nnw34455 0.0 101050
18 may, tue
tue1800:00+12n32510 0.0 101020
03:00+10n225351 0.0 101014
06:00+9n225664 0.0 101014
09:00+16w123755 0.0 1010493
12:00+21wsw5526100 0.0 10081733
15:00+25wnw881949 0.0 10053029
18:00+25nw461610 0.0 10043458
21:00+19nw222913 0.0 100513
19 may, wed
wed1900:00+16ene11345 0.0 100711
03:00+15ese22350 0.0 100611
06:00+13ese22380 0.0 100711
09:00+19s232510 0.0 1007528
12:00+23sw81115100 0.0 10052729
15:00+25sw1414128 0.0 10033372
18:00+24sw1314120 0.0 10022976
21:00+19sw611131 0.0 1003170
20 may, thu
thu2000:00+14sse22240 0.0 100514
03:00+13se22280 0.0 100411
06:00+11ese22390 0.0 100511
09:00+17s49240 0.0 10051350
12:00+21ssw712181 0.0 10032728
15:00+24sw12151581 0.0 10004042
18:00+22ssw11151399 0.0 9994100
21:00+18ssw9161890 0.0 1001971